SCP
0 0 0 0 0 0 0 0 0 0 0 0 0 0 0 0 0 0 0 0 0 0 0 0 0 0 0 0 0 0 0 0 0 0 0 0 0 0 0 0 0 0 0
0 0 0 0 0 0 0 0 0 0 0 0 0 0 0 0 0 0 0 0 0 0 0 0 0 0 0 0 0 0 0 0 0 0 0 0 0 0 0 0 0 0 0
0 0 0 0 0 0 0 0 0 0 0 0 0 0 0 0 0 0 0 0 0 0 0 0 0 0 0 0 0 0 0 0 0 0 0 0 0 0 0 0 0 0 0
0 0 0 0 0 0 0 0 0 0 0 0 0 0 0 0 0 0 0 0 0 0 0 0 0 0 0 0 0 0 0 0 0 0 0 0 0 0 0 0 0 0 0
0 0 0 0 0 0 0 0 0 0 0 0 0 0 0 0 0 0 0 0 0 0 0 0 0 0 0 0 0 0 0 0 0 0 0 0 0 0 0 0 0 0 0
0 0 0 0 0 0 0 0 0 0 0 0 0 0 0 0 0 0 0 0 0 0 0 0 0 0 0 0 0 0 0 0 0 0 0 0 0 0 0 0 0 0 0
0 0 0 0 0 0 0 0 0 0 0 0 0 0 0 0 0 0 0 0 0 0 0 0 0 0 0 0 0 0 0 0 0 0 0 0 0 0 0 0 0 0 0
0 0 0 0 0 0 0 0 0 0 0 0 0 0 0 0 0 0 0 0 0 0 0 0 0 0 0 0 0 0 0 0 0 0 0 0 0 0 0 0 0 0 0
0 0 0 0 0 0 0 0 0 0 0 0 0 0 0 0 0 0 0 0 0 0 0 0 0 0 0 0 0 0 0 0 0 0 0 0 0 0 0 0 0 0 0
0 0 0 0 0 0 0 0 0 0 0 0 0 0 0 0 0 0 0 0 0 0 0 0 0 0 0 0 0 0 0 0 0 0 0 0 0 0 0 0 0 0 1
0 0 0 0 0 0 0 0 0 0 0 0 0 0 0 0 0 0 0 0 0 0 0 0 0 0 0 0 0 0 0 0 0 0 0 0 0 0 0 0 1 1 1
0 0 0 0 0 0 0 0 0 0 0 0 0 0 0 0 0 0 0 0 0 0 0 0 0 0 0 0 0 0 0 0 0 0 0 0 0 0 0 1 1 1 1
0 0 0 0 0 0 0 0 0 0 0 0 0 0 0 0 0 0 0 0 0 0 0 0 0 0 0 0 0 0 0 0 0 0 0 0 0 0 0 1 1 1 1
0 0 0 0 0 0 0 0 0 0 0 0 0 0 0 0 0 0 0 0 0 0 0 0 0 0 0 0 0 0 0 0 0 0 0 0 0 0 0 0 0 1 1
0 0 0 0 0 0 0 0 0 0 0 0 0 0 0 0 0 0 0 0 0 0 0 0 0 0 0 0 0 0 0 0 0 0 0 0 0 0 0 0 0 0 0
0 0 0 0 0 0 0 0 0 0 0 0 0 0 0 0 0 0 0 0 0 0 0 0 0 0 0 0 0 0 0 0 0 0 0 0 0 0 0 0 0 0 0
0 0 0 0 0 0 0 0 0 0 0 0 0 0 0 0 0 0 0 0 0 0 0 0 0 0 0 0 0 0 0 0 0 0 0 0 0 0 0 0 0 0 0
0 0 0 0 0 0 0 0 0 0 0 0 0 0 0 0 0 0 0 0 0 0 0 0 0 0 0 0 0 0 0 0 0 0 0 0 0 0 0 0 0 0 0
0 0 0 0 0 0 0 0 0 0 0 0 0 0 0 0 0 0 0 0 0 0 0 0 0 0 0 0 0 0 0 0 0 0 0 0 0 0 0 0 0 0 0
0 0 0 0 0 0 0 0 0 0 0 0 0 0 0 0 0 0 0 0 0 0 0 0 0 0 0 0 0 0 0 0 0 0 0 0 0 0 0 0 0 0 0
0 0 0 0 0 0 0 0 0 0 0 0 0 0 0 0 0 0 0 0 0 0 0 0 0 0 0 0 0 0 0 0 0 0 0 0 0 0 0 0 0 0 0
0 0 0 0 0 0 0 0 0 0 0 0 0 0 0 0 0 0 0 0 0 0 0 0 0 0 0 0 0 0 0 0 0 0 0 0 0 0 0 0 0 0 0
0 0 0 0 0 0 0 0 0 0 0 0 0 0 0 0 0 0 0 0 0 0 0 0 0 0 0 0 0 0 0 0 0 0 0 0 0 0 0 0 0 0 0
0 0 0 0 0 0 0 0 0 0 0 0 0 0 0 0 0 0 0 0 0 0 0 0 0 0 0 0 0 0 0 0 0 0 0 0 0 0 0 0 0 0 0
0 0 0 0 0 0 0 0 0 0 0 0 0 0 0 0 0 0 0 0 0 0 0 0 0 0 0 0 0 0 0 0 0 0 0 0 0 0 0 0 0 0 0
0 0 0 0 0 0 0 0 0 0 0 0 0 0 0 0 0 0 0 0 0 0 0 0 0 0 0 0 0 0 0 0 0 0 0 0 0 0 0 0 0 0 0
Wind_Speed
3 4 4 3 4 3 3 3 4 4 4 4 4 4 4 4 3 5 4 11 12 12 12 12 13 13 13 13 12 12 13 14 14 14 14 14 14 13 12 11 11 11 10
4 5 5 4 4 4 3 3 4 3 3 3 3 3 3 3 3 5 5 6 11 11 11 11 12 13 13 13 12 12 12 12 13 14 14 14 15 14 12 11 11 11 11
6 6 5 4 3 4 5 4 4 3 3 4 4 4 2 2 2 3 5 4 4 8 9 10 11 12 13 13 13 12 12 12 13 14 14 15 15 15 14 13 12 12 13
8 6 5 4 4 4 4 3 4 3 4 4 4 3 3 1 2 3 4 4 4 3 4 7 10 10 11 12 13 13 13 13 13 14 15 16 16 16 16 15 14 14 14
9 7 5 5 5 4 4 4 4 3 3 4 4 2 1 0 2 2 3 4 4 3 2 5 9 9 11 12 12 13 13 14 14 15 15 16 17 17 17 17 16 16 16
9 8 6 6 6 4 3 3 3 3 3 3 4 2 0 1 1 1 2 3 3 3 3 4 4 6 12 14 13 13 14 14 14 15 16 17 17 18 18 18 17 17 17
9 8 7 6 5 5 5 4 3 4 3 3 3 3 2 1 1 2 2 3 2 2 3 3 3 3 4 11 13 14 14 14 16 17 17 18 19 20 19 19 19 18 18
10 9 8 6 6 6 6 5 3 2 2 3 3 2 4 3 3 1 1 2 1 2 2 2 2 3 3 3 7 13 14 15 16 18 19 20 21 21 22 21 21 20 20
9 9 9 7 7 6 5 5 4 4 2 2 3 3 2 1 4 4 2 1 1 2 2 2 2 2 4 3 3 7 13 14 16 20 22 22 22 23 23 22 22 22 22
9 10 10 8 7 6 6 5 5 3 3 2 1 2 2 2 1 4 5 3 4 4 4 4 3 3 3 3 4 9 14 15 18 22 24 24 24 24 23 23 23 23 23
8 10 9 8 7 6 6 6 5 4 2 2 2 1 2 1 1 2 4 4 4 4 4 4 4 4 4 3 2 7 14 16 20 23 25 25 25 24 24 24 24 24 24
7 9 10 7 6 6 6 6 5 4 3 2 1 0 1 0 1 1 3 4 5 4 5 6 6 4 3 3 5 11 14 18 22 24 25 25 25 25 25 25 26 26 26
7 9 9 7 6 6 6 5 4 4 3 2 0 1 1 1 1 1 3 4 5 4 5 4 3 3 4 2 3 13 15 20 23 25 26 26 26 26 27 27 27 27 27
8 9 9 8 7 7 6 5 4 3 3 1 1 1 1 1 1 1 2 3 5 4 3 5 5 4 3 4 9 18 9 21 25 26 27 27 28 28 28 28 27 27 27
10 10 10 9 7 7 6 5 3 4 3 2 1 1 1 1 1 2 2 2 3 6 5 4 4 5 7 6 11 8 7 18 26 26 27 28 29 29 29 29 28 28 28
11 12 10 8 7 6 5 4 3 3 1 1 2 1 1 1 2 2 2 3 3 5 7 3 4 6 7 9 17 11 9 24 25 27 28 29 29 29 29 29 29 29 29
12 11 9 8 7 6 5 4 3 3 2 1 1 1 1 1 2 2 3 3 4 4 9 7 4 5 7 9 10 8 9 9 11 24 28 28 28 29 29 30 30 30 29
10 10 9 8 7 6 4 3 1 1 1 2 1 1 2 2 2 3 3 4 4 5 7 11 6 5 8 9 9 9 11 11 9 21 26 27 28 29 30 30 30 30 30
10 9 8 8 7 6 4 3 2 2 2 2 2 1 2 2 3 3 3 3 4 6 5 9 9 6 7 8 9 10 11 9 11 15 21 24 27 29 30 30 30 30 29
10 9 9 8 7 5 3 3 3 3 3 3 3 3 3 4 4 3 3 4 5 5 6 7 9 9 7 7 7 8 9 6 8 11 17 20 24 28 29 30 30 30 29
11 10 9 7 5 4 4 5 4 4 5 5 5 4 3 5 8 7 6 5 5 5 5 7 9 9 8 7 7 7 10 9 9 9 9 10 11 11 14 21 25 27 29
10 9 7 6 5 4 6 5 3 3 4 5 6 4 4 6 9 12 14 14 13 9 8 8 9 10 11 9 7 9 10 13 12 4 7 12 10 11 11 9 21 28 29
9 8 6 5 5 6 5 3 5 4 5 6 6 4 4 5 8 3 9 14 13 19 20 13 11 11 10 8 8 11 12 13 14 9 9 15 10 11 10 13 26 29 30
7 6 5 4 4 5 5 3 7 5 5 6 6 4 4 4 5 8 5 5 6 9 14 11 9 9 10 9 11 14 14 12 12 9 8 14 13 12 12 9 21 29 29
6 5 4 4 3 3 4 3 7 3 5 6 5 5 6 5 12 16 8 7 8 8 15 21 22 21 26 26 21 11 8 10 14 12 6 8 11 13 12 11 14 22 23
5 4 3 2 2 1 1 4 7 2 4 4 5 6 11 12 15 16 9 8 10 9 9 10 13 16 14 15 21 11 7 10 13 11 4 4 8 10 11 6 5 7 13
Wind_Direction
145 112 99 94 91 93 87 62 49 31 23 24 6 12 9 1 24 92 86 82 73 64 56 50 44 37 31 25 21 18 13 10 7 5 3 1 358 354 351 352 354 354 351
127 109 94 86 84 82 68 62 64 34 35 12 342 353 12 11 37 89 119 89 85 75 59 46 36 28 20 14 9 5 3 360 355 351 348 347 344 339 332 327 329 330 329
122 114 114 110 110 95 70 44 41 38 33 5 356 7 29 20 20 83 110 122 99 82 66 45 27 18 11 7 2 358 355 353 348 342 338 336 334 330 324 316 313 314 312
123 115 115 113 103 88 82 67 33 37 31 14 348 345 343 53 39 73 88 91 90 78 63 40 20 9 3 360 356 352 350 347 342 337 332 330 327 324 318 313 308 305 304
121 118 117 113 98 90 89 87 60 46 27 358 321 303 329 63 111 73 84 103 97 75 43 28 14 359 352 347 344 343 344 342 338 334 330 327 324 320 316 311 305 301 300
126 121 122 115 110 106 101 103 109 69 32 343 320 319 257 95 126 132 69 89 114 105 65 45 26 0 351 339 339 339 338 337 337 336 332 328 323 318 313 308 304 300 297
130 129 124 120 117 107 91 76 80 77 27 356 8 346 318 220 148 126 94 71 75 93 67 48 36 8 339 338 337 333 334 336 336 334 332 329 325 320 314 308 303 299 297
132 131 125 122 116 109 97 85 70 85 50 36 45 16 358 352 346 33 100 104 35 77 39 25 11 345 339 322 324 330 332 331 331 330 329 325 321 316 311 307 302 299 296
129 128 126 125 121 114 109 97 81 79 80 55 59 78 76 334 323 322 319 38 18 18 342 321 304 326 332 318 315 328 323 325 326 326 324 320 316 312 307 303 301 299 296
129 126 125 124 120 118 120 113 99 92 82 78 61 53 109 128 67 320 318 341 6 346 326 315 311 299 295 291 300 319 319 320 322 323 320 316 312 309 306 304 303 302 300
126 124 124 122 124 120 116 110 102 86 81 83 69 35 29 45 188 222 285 310 327 319 320 310 296 278 267 269 274 301 310 315 317 317 314 310 308 307 307 308 307 305 303
127 124 123 121 120 117 118 118 113 103 94 90 67 70 102 81 340 310 287 301 297 292 301 288 280 264 259 263 279 304 308 310 311 309 307 306 307 308 308 307 305 303 300
141 136 131 129 124 121 122 124 123 129 124 108 59 31 33 338 295 286 284 291 293 297 289 289 311 320 309 326 320 316 309 309 308 306 305 305 306 307 306 303 300 298 297
142 138 133 129 128 126 128 129 127 131 122 155 220 179 249 274 289 284 276 298 303 291 293 304 314 309 332 329 310 316 310 309 306 304 303 305 306 305 302 300 298 296 294
141 137 130 129 130 130 133 137 138 144 150 197 213 34 331 293 295 278 273 267 277 294 295 279 295 334 329 312 311 311 298 305 306 305 305 304 303 301 299 298 297 296 294
139 134 128 126 124 123 124 123 121 122 132 250 178 176 287 323 333 319 302 280 262 273 285 282 303 298 307 315 311 309 301 306 305 303 301 300 300 300 300 299 298 297 294
135 131 128 127 128 132 132 137 162 157 188 272 292 235 275 313 294 287 287 282 275 274 285 290 282 293 305 302 299 292 294 289 290 298 300 299 300 302 301 300 298 297 294
127 124 124 123 121 116 111 116 132 138 215 253 285 309 293 297 299 288 279 275 277 275 284 299 303 302 299 295 294 295 301 298 293 299 301 303 304 303 301 299 297 296 294
119 114 111 109 105 100 91 67 43 11 339 303 277 266 273 286 282 278 288 297 293 300 303 303 301 294 290 292 296 293 291 292 297 301 304 303 301 299 299 300 301 301 299
114 107 101 99 101 106 96 58 24 354 332 318 296 262 250 249 252 258 283 278 282 288 287 289 293 293 289 286 289 295 297 285 293 301 296 295 296 298 299 300 299 298 296
107 103 103 103 107 107 81 55 19 354 341 325 309 286 271 286 289 284 280 270 285 280 282 286 291 295 296 298 294 292 299 300 289 282 283 288 292 289 291 292 294 292 291
102 102 106 113 114 101 86 49 0 339 327 313 300 298 312 305 295 301 308 306 303 302 299 291 294 295 294 290 293 298 300 299 296 274 289 293 287 286 286 282 290 294 296
107 107 106 103 101 116 104 42 344 337 305 288 281 276 283 288 308 309 299 302 305 305 303 298 293 290 290 290 290 291 289 289 292 295 295 292 288 284 284 290 297 298 298
106 105 103 97 99 138 121 37 345 341 304 291 288 282 280 289 300 300 286 289 285 291 292 295 285 285 291 288 282 288 291 292 287 282 271 284 292 290 292 285 292 292 292
99 98 94 87 78 119 124 18 351 327 304 306 313 323 320 296 301 308 310 296 290 288 302 302 301 302 303 304 304 302 296 296 295 293 275 272 288 297 292 284 281 287 291
95 99 101 104 111 121 73 354 347 328 314 319 322 319 315 310 309 313 310 299 300 297 294 299 302 302 298 297 303 298 294 296 295 296 278 271 292 307 299 261 260 283 287